EW9824 Weather Reports


time (UTC)temp
C
wind
direction
speed
KPH
gust
KPH
rain 1hr
cm
rain 24hr
cm
rain mn
cm
humidity
%
barometer
mb
20210927040035 15 18 3.2 0.0 0.00 0.00 0.00 67 1011.1
20210927034536 15 16 3.2 0.0 0.00 0.00 0.00 68 1011.1
20210927033030 15 304 1.6 0.0 0.00 0.00 0.00 66 1011.1
20210927031535 16 139 1.6 0.0 0.00 0.00 0.00 63 1011.1
20210927030040 16 143 3.2 0.0 0.00 0.00 0.00 61 1011.1
20210927024528 15 121 3.2 0.0 0.00 0.00 0.00 65 1011.1
20210927023032 16 63 0.0 0.0 0.00 0.00 0.00 63 1011.5
20210927021537 16 81 1.6 0.0 0.00 0.00 0.00 60 1011.5
20210927020038 17 324 4.8 0.0 0.00 0.00 0.00 57 1011.5
20210927014536 17 13 6.4 0.0 0.00 0.00 0.00 60 1011.1
20210927013039 19 349 1.6 0.0 0.00 0.00 0.00 55 1010.7
20210927011532 19 19 4.8 0.0 0.00 0.00 0.00 56 1010.4
20210927010038 20 346 3.2 0.0 0.00 0.00 0.00 53 1010.7
20210927004548 21 340 3.2 0.0 0.00 0.00 0.00 51 1010.7
20210927003033 21 354 1.6 0.0 0.00 0.00 0.00 50 1010.7
20210927001535 21 357 3.2 0.0 0.00 0.00 0.00 52 1011.1
20210927000038 21 349 4.8 0.0 0.00 0.00 0.00 51 1011.1
20210926234528 21 350 4.8 0.0 0.00 0.00 0.00 50 1011.5
20210926233039 21 337 6.4 0.0 0.00 0.00 0.00 49 1011.5
20210926231536 21 341 6.4 0.0 0.00 0.00 0.00 48 1011.5
20210926230038 21 344 8.0 0.0 0.00 0.00 0.00 48 1011.8
20210926224529 21 332 8.0 0.0 0.00 0.00 0.00 48 1011.8
20210926223032 21 331 8.0 0.0 0.00 0.00 0.00 48 1011.8
20210926221538 21 320 6.4 0.0 0.00 0.00 0.00 48 1012.2
20210926220035 20 325 8.0 0.0 0.00 0.00 0.00 50 1012.2
20210926214536 20 322 8.0 0.0 0.00 0.00 0.00 51 1012.5
20210926213035 20 338 8.0 0.0 0.00 0.00 0.00 53 1012.9
20210926211533 20 345 9.7 0.0 0.00 0.00 0.00 54 1012.9
20210926210040 20 342 8.0 0.0 0.00 0.00 0.00 56 1013.2
20210926204535 19 343 8.0 0.0 0.00 0.00 0.00 57 1013.2
20210926203033 18 346 6.4 0.0 0.00 0.00 0.00 59 1013.6
20210926201535 18 346 8.0 0.0 0.00 0.00 0.00 60 1013.6
20210926200036 18 354 8.0 0.0 0.00 0.00 0.00 61 1013.9
20210926194534 17 359 8.0 0.0 0.00 0.00 0.00 63 1013.9
20210926193029 16 349 9.7 0.0 0.00 0.00 0.00 65 1013.9
20210926191536 16 345 8.0 0.0 0.00 0.00 0.00 67 1014.3
20210926190030 16 351 8.0 0.0 0.00 0.00 0.00 64 1014.3
20210926184534 17 348 8.0 0.0 0.00 0.00 0.00 59 1014.3
20210926183038 18 350 3.2 0.0 0.00 0.00 0.00 56 1014.3
20210926181536 17 5 4.8 0.0 0.00 0.00 0.00 60 1014.7
20210926180037 17 33 4.8 0.0 0.00 0.00 0.00 62 1015.4
20210926174532 16 8 3.2 0.0 0.00 0.00 0.00 65 1015.4
20210926173033 16 17 6.4 0.0 0.00 0.00 0.00 67 1015.4
20210926171529 15 4 3.2 0.0 0.00 0.00 0.00 70 1015.7
20210926170037 14 70 1.6 0.0 0.00 0.00 0.00 74 1015.7
20210926164532 13 103 0.0 0.0 0.00 0.00 0.00 76 1015.7
20210926163031 12 75 0.0 0.0 0.00 0.00 0.00 80 1015.7
20210926161540 11 249 0.0 0.0 0.00 0.00 0.00 83 1015.7
20210926160035 11 270 0.0 0.0 0.00 0.00 0.00 86 1015.4
20210926154534 10 90 0.0 0.0 0.00 0.00 0.00 89 1015.4
20210926153031 8 159 0.0 0.0 0.00 0.00 0.00 91 1015.0
20210926151530 7 179 1.6 0.0 0.00 0.00 0.00 92 1014.7
20210926150033 7 185 1.6 0.0 0.00 0.00 0.00 91 1015.0
20210926144542 6 225 0.0 0.0 0.00 0.00 0.00 90 1014.7
20210926143029 6 220 3.2 0.0 0.00 0.00 0.00 88 1014.7
20210926141548 7 230 1.6 0.0 0.00 0.00 0.00 87 1014.7
20210926140031 8 210 4.8 0.0 0.00 0.00 0.00 85 1014.7
20210926134536 10 229 3.2 0.0 0.00 0.00 0.00 84 1014.7
20210926133058 11 15 4.8 0.0 0.00 0.00 0.00 80 1014.7
20210926130035 12 3 9.7 0.0 0.00 0.00 0.00 78 1014.7
20210926124539 10 25 8.0 0.0 0.00 0.00 0.00 84 1014.3
20210926123034 8 359 4.8 0.0 0.00 0.00 0.00 84 1014.3
20210926121556 8 142 1.6 0.0 0.00 0.00 0.00 83 1014.3
20210926120037 8 198 3.2 0.0 0.00 0.00 0.00 81 1014.3
20210926114531 8 202 3.2 0.0 0.00 0.00 0.00 81 1013.9
20210926113036 9 176 4.8 0.0 0.00 0.00 0.00 80 1013.9
20210926111530 9 180 1.6 0.0 0.00 0.00 0.00 80 1013.9
20210926110039 9 197 1.6 0.0 0.00 0.00 0.00 80 1013.6
20210926104528 8 197 3.2 0.0 0.00 0.00 0.00 80 1013.6
20210926103036 9 199 1.6 0.0 0.00 0.00 0.00 78 1013.6
20210926101531 9 168 1.6 0.0 0.00 0.00 0.00 77 1013.6
20210926100039 10 198 4.8 0.0 0.00 0.00 0.00 76 1013.6
20210926094530 10 172 3.2 0.0 0.00 0.00 0.00 72 1013.6
20210926093035 12 194 3.2 0.0 0.00 0.00 0.00 65 1013.6
20210926091535 15 166 4.8 0.0 0.00 0.00 0.00 60 1013.6
20210926090038 13 28 9.7 0.0 0.00 0.00 0.00 69 1013.6
20210926084536 11 30 6.4 0.0 0.00 0.00 0.00 77 1013.6
20210926083049 10 219 3.2 0.0 0.00 0.00 0.00 79 1013.2
20210926081533 10 181 3.2 0.0 0.00 0.00 0.00 78 1013.2
20210926080038 10 177 3.2 0.0 0.00 0.00 0.00 76 1013.2
20210926073033 11 166 3.2 0.0 0.00 0.00 0.00 73 1013.2
20210926071531 12 182 3.2 0.0 0.00 0.00 0.00 72 1013.2
20210926070035 13 136 3.2 0.0 0.00 0.00 0.00 69 1013.2
20210926064532 13 156 4.8 0.0 0.00 0.00 0.00 69 1013.2